SCP
0 0 0 -0 -0 0 0 0 0 0 0 0 0 0 0 0 0 0 0 0 0 0 0 0 0 0 0 0 0 0 0 0 0 0 0 0 0 0 0 0 0 0 0
0 0 0 0 0 0 0 0 0 0 0 0 0 0 0 0 0 0 0 0 0 0 0 0 0 0 0 0 0 0 0 0 0 0 0 0 0 0 0 0 0 0 0
0 0 0 0 0 0 0 0 0 0 0 0 0 0 0 0 0 0 0 0 0 0 0 0 0 0 0 0 0 0 0 0 0 0 0 0 0 0 0 0 0 0 0
0 0 0 0 0 0 0 0 -0 -0 -0 -0 -0 -0 0 0 0 0 0 0 0 0 0 0 0 0 0 0 0 0 0 0 0 0 0 0 0 0 0 0 0 0 0
0 0 0 0 0 -0 -0 -0 -0 -0 -0 -0 -0 -0 -0 0 0 0 0 0 0 0 0 0 0 0 0 0 0 0 0 0 0 0 0 0 0 0 0 0 0 0 0
0 0 0 0 -0 -0 -0 -0 -0 -0 -0 -0 0 0 0 0 0 0 0 0 0 0 0 0 0 0 0 0 0 0 0 0 0 0 0 0 0 0 0 0 0 0 0
0 0 0 -0 -0 -0 -0 -0 -0 -0 -0 -0 0 0 0 0 0 0 0 0 0 0 0 0 0 0 0 0 0 0 0 0 0 0 0 0 0 0 0 0 0 0 0
0 0 0 0 -0 -0 -0 -0 -0 -0 0 0 0 0 0 0 0 0 0 0 0 0 0 0 0 0 0 0 0 0 0 0 0 0 0 0 0 0 0 0 0 0 0
0 0 0 0 -0 -0 0 0 0 0 0 0 0 0 0 0 0 0 0 0 0 0 0 0 0 0 0 0 0 0 0 0 0 0 0 0 0 0 0 0 0 0 0
0 0 0 0 0 0 0 0 0 0 0 0 0 0 0 0 0 0 0 0 0 0 0 0 0 0 0 0 0 0 0 0 0 0 0 0 0 0 0 0 0 0 0
0 0 0 0 0 0 0 0 0 0 0 0 0 0 0 0 0 0 0 0 0 0 0 0 0 0 0 0 0 0 0 0 0 0 0 0 0 0 0 0 0 0 0
0 0 0 0 0 0 0 0 0 0 0 0 0 0 0 0 0 0 0 0 0 0 0 0 0 0 0 0 0 0 0 0 0 0 0 0 0 0 0 0 0 0 0
0 0 0 0 0 0 0 0 0 0 0 0 0 0 0 0 0 0 0 0 0 0 0 0 0 0 0 0 0 0 0 0 0 0 0 0 0 0 0 0 0 0 0
0 0 0 0 0 0 0 0 0 0 0 0 0 0 0 0 0 0 0 0 0 0 0 0 0 0 0 0 0 0 0 0 0 0 0 0 0 0 0 0 0 0 0
0 0 0 0 0 0 0 0 0 0 0 0 0 0 0 0 0 0 0 0 0 0 0 0 0 0 0 0 0 0 0 0 0 0 0 0 0 0 0 0 0 0 0
0 0 0 0 0 0 0 0 0 0 0 0 0 0 0 0 0 0 0 0 0 0 0 0 0 0 0 0 0 0 0 0 0 0 0 0 0 0 0 0 0 0 0
0 0 0 0 0 0 0 0 0 0 0 0 0 0 0 0 0 0 0 0 0 0 0 0 0 0 0 0 0 0 0 0 0 0 0 0 0 0 0 0 0 0 0
0 0 0 0 0 0 0 0 0 0 0 0 0 0 0 0 0 0 0 0 0 0 0 0 0 0 0 0 0 0 0 0 0 0 0 0 0 0 0 0 0 0 0
0 0 0 0 0 0 0 0 0 0 0 0 0 0 0 0 0 0 0 0 0 0 0 0 0 0 0 0 0 0 0 0 0 0 0 0 0 0 0 0 0 0 0
0 0 0 0 0 0 0 0 0 0 0 0 0 0 0 0 0 0 0 0 0 0 0 0 0 0 0 0 0 0 0 0 0 0 0 0 0 0 0 0 0 0 0
0 0 0 0 0 0 0 0 0 0 0 0 0 0 0 0 0 0 0 0 0 0 0 0 0 0 0 0 0 0 0 0 0 0 0 0 0 0 0 0 0 0 0
0 0 0 0 0 0 0 0 0 0 0 0 0 0 0 0 0 0 0 0 0 0 0 0 0 0 0 0 0 0 0 0 0 0 0 0 0 0 0 0 0 0 0
0 0 0 0 0 0 0 0 0 0 0 0 0 0 0 0 0 0 0 0 0 0 0 0 0 0 0 0 0 0 0 0 0 0 0 0 0 0 0 0 0 0 0
1 1 1 0 0 0 0 0 0 0 0 0 0 0 0 0 0 0 0 0 0 0 0 0 0 0 0 0 0 0 0 0 0 0 0 0 0 0 0 0 0 0 0
1 1 1 1 0 0 0 0 0 0 0 0 0 0 0 0 0 0 0 0 0 0 0 0 0 0 0 0 0 0 0 0 0 0 0 0 0 0 0 0 0 0 0
1 1 1 1 0 0 0 0 0 0 0 0 0 0 0 0 0 0 0 0 0 0 0 0 0 0 0 0 0 0 0 0 0 0 0 0 0 0 0 0 0 0 0
Wind_Speed
1 1 1 0 0 0 1 2 1 1 2 2 2 3 3 4 3 3 2 7 9 9 10 10 11 11 12 11 11 11 12 12 11 11 11 10 10 10 9 9 9 8 8
1 1 1 1 0 0 1 1 2 1 1 1 2 2 3 3 4 4 3 4 7 8 9 9 10 11 12 12 12 12 12 11 11 10 10 10 10 10 10 10 9 9 9
1 2 1 1 0 0 1 1 1 1 1 1 1 2 2 3 4 4 3 2 3 6 8 8 8 9 11 11 12 12 12 12 11 10 10 10 10 9 10 10 9 9 9
2 2 1 1 1 1 1 1 1 1 1 1 0 0 1 2 3 3 3 3 2 3 5 7 8 8 10 10 11 11 12 12 11 10 10 10 10 10 10 9 9 9 9
2 2 1 1 1 2 2 1 1 1 1 1 0 0 1 1 2 3 3 3 3 3 3 5 7 7 9 10 11 12 12 12 11 11 11 11 11 11 11 10 9 9 9
2 2 2 1 2 2 2 2 2 1 1 0 0 1 0 1 1 2 3 3 3 3 3 3 3 5 8 8 9 10 11 11 11 11 10 11 11 11 10 10 10 10 9
2 2 2 2 2 2 1 1 1 2 1 1 2 2 2 1 1 2 2 2 2 3 3 3 3 2 3 6 6 7 8 9 9 9 9 9 8 8 8 9 9 10 10
2 3 2 2 2 2 2 2 1 1 1 1 2 1 2 3 2 1 1 1 2 2 2 4 3 3 3 2 4 8 9 8 9 9 9 8 8 8 8 9 9 9 10
2 2 2 2 2 2 1 1 1 2 1 1 1 2 2 1 2 2 1 0 1 1 1 2 3 3 4 3 3 6 9 9 9 9 9 9 8 8 8 8 9 9 10
2 2 2 2 2 1 1 0 1 1 2 1 1 1 1 2 1 1 3 2 1 1 1 1 2 2 3 3 4 6 8 8 9 9 9 9 9 9 9 9 9 9 10
2 2 2 2 2 1 1 1 1 1 1 1 0 0 1 1 1 1 1 3 2 1 1 1 1 1 2 2 3 5 7 7 8 8 8 8 8 8 9 9 9 9 10
1 1 2 2 2 1 1 1 1 2 1 1 1 1 1 1 1 1 1 2 2 2 1 1 1 2 3 3 4 6 7 7 7 7 7 8 8 8 8 9 9 9 10
1 1 1 1 1 1 1 1 1 1 1 1 1 0 0 1 1 1 1 1 1 2 2 1 1 1 2 2 2 4 5 6 6 7 7 7 7 7 7 7 7 8 8
2 2 2 1 1 1 1 1 1 0 1 0 1 0 0 1 0 1 2 2 1 2 2 2 2 1 1 1 2 3 2 4 5 6 7 7 7 6 6 6 6 6 6
2 2 2 1 1 1 1 1 1 0 0 0 0 0 0 1 1 1 1 2 2 2 3 3 2 2 1 1 1 1 1 1 3 4 5 6 7 7 6 6 6 6 6
3 3 2 2 1 1 1 1 1 0 0 1 0 0 1 1 1 1 0 1 2 3 3 2 2 2 1 1 1 1 2 3 4 4 5 5 6 6 5 5 5 5 5
3 3 3 3 2 1 1 1 1 1 0 1 1 0 1 1 1 1 0 0 1 2 2 3 2 2 1 2 2 1 1 2 2 5 5 5 5 5 5 5 5 5 5
3 3 3 3 3 2 1 2 1 1 1 1 2 1 2 1 1 1 1 1 1 2 2 3 2 2 2 2 1 2 2 1 2 4 4 5 5 6 6 6 6 5 5
2 2 3 3 3 2 2 2 2 2 1 2 2 1 2 1 2 1 1 1 2 1 1 2 2 2 2 1 1 2 2 2 2 3 3 4 6 6 7 7 7 7 6
3 2 2 2 2 3 2 2 2 2 1 1 1 1 1 1 2 2 2 2 2 1 1 1 1 1 2 2 1 1 2 2 2 2 3 3 4 5 6 7 7 7 7
3 3 2 1 2 2 2 2 2 2 2 1 1 1 2 2 2 2 1 2 2 2 1 1 1 1 1 1 1 1 2 3 3 2 2 2 2 2 3 5 6 7 7
3 3 3 2 2 2 3 4 3 3 2 2 2 2 2 2 3 3 2 2 3 3 3 2 2 2 3 3 2 2 1 1 3 2 1 3 1 2 3 3 5 6 7
3 3 3 3 3 3 3 3 4 3 3 2 2 2 2 2 2 2 3 3 3 3 4 4 3 4 4 4 3 2 2 3 4 3 1 2 2 3 3 3 6 6 6
3 3 3 3 3 3 3 3 2 2 2 2 3 3 2 2 2 1 2 2 2 3 3 3 4 5 5 4 4 4 4 3 3 2 2 2 2 3 3 3 5 6 6
2 2 2 2 3 2 2 3 2 1 1 2 2 2 2 2 3 1 0 1 3 3 3 3 4 4 4 4 2 0 1 0 2 3 2 2 2 2 2 3 3 5 5
2 2 1 2 3 2 2 3 3 2 1 2 2 2 3 3 3 2 2 2 3 4 3 3 3 4 3 3 3 3 3 3 2 3 2 2 2 1 2 2 2 2 3
Wind_Direction
153 150 165 119 186 176 167 175 180 190 194 207 198 183 178 175 170 172 192 193 194 193 192 194 197 200 200 197 199 200 200 199 198 197 197 199 200 198 199 202 202 202 204
145 128 119 112 137 209 181 166 164 170 184 186 195 193 186 169 172 178 188 192 193 192 191 194 197 202 206 206 205 204 203 200 199 196 197 201 204 205 203 203 206 206 209
128 120 94 75 73 139 128 124 121 118 144 144 155 180 182 171 178 185 185 187 193 195 195 199 199 203 207 208 207 205 204 203 203 201 202 204 206 206 205 206 207 209 211
113 109 81 40 21 56 65 99 102 111 111 115 111 167 173 175 187 183 181 183 191 198 201 204 206 207 209 209 210 209 207 206 205 204 207 210 212 211 210 211 212 214 216
112 109 84 38 49 62 46 77 84 99 93 77 114 129 169 182 185 183 190 196 198 195 197 205 208 207 208 211 211 210 208 207 207 209 214 216 216 216 213 216 218 218 217
113 108 94 62 76 73 46 45 67 56 85 98 43 52 78 203 191 192 200 204 207 202 201 209 212 213 207 207 209 211 210 209 209 212 216 221 222 219 216 216 217 221 220
126 112 94 68 75 88 86 69 73 55 28 56 65 26 1 332 204 218 208 203 209 209 192 201 207 207 213 209 205 202 206 208 207 207 211 214 216 215 216 216 218 221 221
129 122 114 103 93 85 62 52 66 66 11 48 104 87 10 349 335 282 209 204 210 204 205 210 208 203 203 203 200 200 205 209 212 213 212 214 216 217 218 223 227 226 223
122 111 119 116 109 107 96 52 69 102 81 1 77 128 135 235 310 334 322 265 209 201 222 209 209 212 207 207 211 212 213 213 215 215 216 218 218 219 220 225 230 229 228
142 130 128 120 117 111 106 62 88 104 103 29 345 38 155 164 156 323 333 326 293 238 245 226 221 220 207 206 212 208 210 215 218 219 218 222 223 224 225 228 234 233 230
149 144 132 118 113 113 107 70 62 73 97 111 65 10 30 39 101 148 289 317 333 305 261 240 206 214 210 204 212 213 211 215 219 222 226 229 230 230 230 232 235 236 235
133 148 127 126 126 125 129 119 92 82 78 78 71 76 115 133 186 162 214 271 295 295 286 255 211 215 219 212 219 209 210 216 221 224 229 234 236 237 236 237 239 239 240
166 186 153 145 150 149 142 122 89 76 77 75 80 95 127 204 177 161 168 250 280 293 316 299 246 226 233 209 224 216 217 220 222 224 228 232 235 238 239 242 243 243 243
180 175 158 156 163 158 147 131 109 125 90 80 50 66 322 291 177 171 177 176 282 310 313 290 294 257 257 211 219 213 229 235 234 232 233 234 235 237 238 241 244 243 239
171 168 159 140 135 148 153 139 133 231 80 118 256 322 301 307 318 255 186 174 177 238 274 284 297 298 291 219 219 206 212 246 242 235 237 238 236 236 236 236 240 241 238
174 166 162 157 148 140 151 148 151 202 123 285 258 21 312 299 323 321 254 211 177 188 242 268 260 278 283 279 242 230 227 239 244 247 248 241 234 228 227 227 231 234 235
174 172 174 169 168 180 180 163 180 151 147 301 301 277 276 277 308 303 290 226 190 173 217 270 276 283 290 297 308 292 275 261 260 251 245 238 233 228 227 229 231 234 233
180 177 174 175 184 190 199 196 209 196 192 247 272 272 275 291 314 302 282 251 236 205 195 243 272 286 283 276 282 277 283 289 268 266 259 243 240 236 232 232 233 234 235
176 177 173 183 194 195 195 197 189 194 205 227 247 258 277 261 275 267 244 240 244 247 210 207 252 269 278 291 313 305 310 303 296 285 269 246 246 245 239 234 234 233 234
171 179 183 185 191 188 180 185 182 183 191 226 240 236 246 236 249 256 239 221 217 229 224 209 247 274 276 282 307 289 310 309 295 291 294 284 269 261 251 242 237 234 235
174 173 172 176 182 187 191 185 189 179 174 222 276 267 257 268 290 269 250 220 202 206 206 202 232 259 278 293 280 265 272 290 290 273 297 298 289 280 269 252 243 235 232
184 178 188 193 200 211 200 193 179 182 188 202 238 272 277 292 314 316 284 234 205 203 205 204 215 222 240 238 245 253 252 286 291 284 276 290 290 278 272 248 250 238 229
193 199 204 197 211 227 202 187 185 180 194 213 231 251 274 300 314 306 300 292 275 247 206 194 205 226 227 225 218 242 240 236 250 251 210 270 270 269 271 268 256 240 229
197 204 206 205 206 223 207 191 182 190 209 226 232 228 234 261 281 315 320 324 303 280 246 217 214 233 234 227 211 215 229 249 274 264 184 238 263 262 271 268 258 238 230
200 207 203 196 189 220 204 185 163 182 217 250 247 239 236 243 276 326 357 306 309 301 292 286 271 269 269 258 243 197 279 250 287 280 224 199 250 277 275 265 259 244 241
195 188 201 200 189 210 204 183 176 181 213 256 269 260 257 253 262 262 220 232 262 271 290 306 308 309 293 288 275 213 206 212 237 271 252 200 237 260 296 279 261 250 252